NKS609 KATL-KMCO

Flight info

Callsign NKS609
Flight time N/A
Altitude 6000
Route SMLTZ3 WALET ZJAYX GRNCH5
Aircraft A320/M-SDE3FGHIRWY/LB1

Departure

Time N/A
Airport Hartsfield Jackson Atlanta International Airport (KATL)

Arrival

Time 2026-04-26 02:43
Airport Orlando International Airport (KMCO)
Time Latitude Longitude Altitude Speed Heading
2026-04-26 02:23 29.62913 -82.12339 21059 ft 359 kts 173°
2026-04-26 02:23 29.60461 -82.11852 20761 ft 358 kts 172°
2026-04-26 02:24 29.57987 -82.11363 20456 ft 356 kts 172°
2026-04-26 02:24 29.55574 -82.10885 20170 ft 355 kts 172°
2026-04-26 02:24 29.53133 -82.10400 19880 ft 354 kts 172°
2026-04-26 02:24 29.50708 -82.09917 19579 ft 353 kts 172°
2026-04-26 02:25 29.48292 -82.09437 19301 ft 352 kts 172°
2026-04-26 02:25 29.45882 -82.08960 19027 ft 351 kts 172°
2026-04-26 02:25 29.43480 -82.08486 18753 ft 350 kts 172°
2026-04-26 02:25 29.41080 -82.08013 18480 ft 349 kts 172°
2026-04-26 02:26 29.38722 -82.07550 18208 ft 348 kts 172°
2026-04-26 02:26 29.36340 -82.07081 17899 ft 346 kts 172°
2026-04-26 02:26 29.33970 -82.06613 17580 ft 344 kts 172°
2026-04-26 02:26 29.31622 -82.06110 17278 ft 343 kts 167°
2026-04-26 02:27 29.29395 -82.05150 16921 ft 342 kts 153°
2026-04-26 02:27 29.27312 -82.03837 16569 ft 340 kts 152°
2026-04-26 02:27 29.25247 -82.02529 16221 ft 339 kts 152°
2026-04-26 02:27 29.23189 -82.01228 15877 ft 337 kts 152°
2026-04-26 02:28 29.21139 -81.99935 15533 ft 335 kts 153°
2026-04-26 02:28 29.19104 -81.98653 15196 ft 333 kts 153°
2026-04-26 02:28 29.17077 -81.97380 14861 ft 331 kts 153°
2026-04-26 02:28 29.15065 -81.96117 14530 ft 329 kts 153°
2026-04-26 02:29 29.13062 -81.94860 14203 ft 327 kts 153°
2026-04-26 02:29 29.11095 -81.93625 13884 ft 326 kts 153°
2026-04-26 02:29 29.09088 -81.92365 13530 ft 324 kts 153°
2026-04-26 02:29 29.07169 -81.91099 13171 ft 323 kts 147°
2026-04-26 02:30 29.05455 -81.89443 12849 ft 322 kts 138°
2026-04-26 02:30 29.03823 -81.87683 12540 ft 320 kts 139°
2026-04-26 02:30 29.02198 -81.85937 12234 ft 318 kts 139°
2026-04-26 02:30 29.00614 -81.84238 11944 ft 316 kts 139°
2026-04-26 02:31 28.99015 -81.82525 11637 ft 314 kts 139°
2026-04-26 02:31 28.97534 -81.80696 11341 ft 314 kts 129°
2026-04-26 02:31 28.96209 -81.78720 11054 ft 313 kts 129°
2026-04-26 02:31 28.94889 -81.76755 10766 ft 311 kts 129°
2026-04-26 02:32 28.93576 -81.74804 10480 ft 309 kts 129°
2026-04-26 02:32 28.92268 -81.72865 10197 ft 307 kts 130°
2026-04-26 02:32 28.90969 -81.70941 9918 ft 305 kts 130°
2026-04-26 02:32 28.89677 -81.69025 9624 ft 304 kts 130°
2026-04-26 02:33 28.88389 -81.67120 9303 ft 302 kts 130°
2026-04-26 02:33 28.87112 -81.65233 8998 ft 300 kts 130°
2026-04-26 02:33 28.85841 -81.63354 8691 ft 298 kts 129°
2026-04-26 02:33 28.84593 -81.61508 8385 ft 288 kts 129°
2026-04-26 02:34 28.83398 -81.59740 8089 ft 276 kts 130°
2026-04-26 02:34 28.82236 -81.58025 7802 ft 271 kts 130°
2026-04-26 02:34 28.81472 -81.56895 7602 ft 272 kts 130°
2026-04-26 02:34 28.80319 -81.55190 7315 ft 271 kts 130°
2026-04-26 02:35 28.79173 -81.53494 7036 ft 269 kts 129°
2026-04-26 02:35 28.78095 -81.51746 6752 ft 269 kts 126°
2026-04-26 02:35 28.77077 -81.49958 6469 ft 269 kts 124°
2026-04-26 02:35 28.76081 -81.48159 6177 ft 268 kts 124°
2026-04-26 02:36 28.75096 -81.46371 5983 ft 262 kts 124°
2026-04-26 02:36 28.74168 -81.44690 5972 ft 242 kts 124°
2026-04-26 02:36 28.73381 -81.43008 5976 ft 242 kts 106°
2026-04-26 02:36 28.73158 -81.41105 5981 ft 243 kts 100°
2026-04-26 02:37 28.72772 -81.39238 5855 ft 244 kts 116°
2026-04-26 02:37 28.71785 -81.37758 5439 ft 233 kts 145°
2026-04-26 02:37 28.70378 -81.36932 5123 ft 227 kts 164°
2026-04-26 02:37 28.68882 -81.36363 4828 ft 226 kts 163°
2026-04-26 02:38 28.67408 -81.35796 4532 ft 222 kts 163°
2026-04-26 02:38 28.65953 -81.35235 4253 ft 220 kts 163°
2026-04-26 02:38 28.64502 -81.34676 3967 ft 219 kts 163°
2026-04-26 02:38 28.63060 -81.34119 3695 ft 218 kts 162°
2026-04-26 02:39 28.61625 -81.33566 3401 ft 217 kts 163°
2026-04-26 02:39 28.60219 -81.33028 3121 ft 208 kts 165°
2026-04-26 02:39 28.58836 -81.32844 2991 ft 192 kts 180°
2026-04-26 02:39 28.57547 -81.32830 2639 ft 180 kts 180°
2026-04-26 02:40 28.56346 -81.32820 2337 ft 164 kts 180°
2026-04-26 02:40 28.55266 -81.32809 2121 ft 148 kts 180°
2026-04-26 02:40 28.54278 -81.32799 1930 ft 141 kts 179°
2026-04-26 02:40 28.53302 -81.32789 1747 ft 138 kts 179°
2026-04-26 02:41 28.52344 -81.32779 1560 ft 137 kts 179°
2026-04-26 02:41 28.51386 -81.32768 1383 ft 138 kts 179°
2026-04-26 02:41 28.50423 -81.32758 1200 ft 138 kts 178°
2026-04-26 02:41 28.49476 -81.32752 1030 ft 137 kts 178°
2026-04-26 02:42 28.48524 -81.32741 843 ft 137 kts 176°
2026-04-26 02:42 28.47569 -81.32730 670 ft 137 kts 177°
2026-04-26 02:42 28.46631 -81.32718 533 ft 139 kts 179°
2026-04-26 02:42 28.45669 -81.32710 319 ft 138 kts 177°
2026-04-26 02:43 28.43849 -81.32686 99 ft 103 kts 180°
2026-04-26 02:43 28.43369 -81.32682 105 ft 51 kts 179°
2026-04-26 02:43 28.43161 -81.32662 103 ft 15 kts 163°
2026-04-26 02:44 28.43072 -81.32589 100 ft 20 kts 125°
2026-04-26 02:44 28.43059 -81.32458 101 ft 15 kts 90°
2026-04-26 02:44 28.43059 -81.32310 98 ft 21 kts 90°
2026-04-26 02:44 28.43061 -81.32186 95 ft 14 kts 89°
2026-04-26 02:45 28.43065 -81.32098 98 ft 10 kts 75°
2026-04-26 02:45 28.43107 -81.32025 96 ft 12 kts 54°
2026-04-26 02:45 28.43161 -81.31939 97 ft 15 kts 54°
2026-04-26 02:45 28.43221 -81.31836 98 ft 15 kts 57°
2026-04-26 02:46 28.43274 -81.31740 101 ft 13 kts 62°
2026-04-26 02:46 28.43278 -81.31641 101 ft 14 kts 98°
2026-04-26 02:46 28.43268 -81.31555 102 ft 8 kts 86°
2026-04-26 02:46 28.43288 -81.31505 102 ft 4 kts 55°
2026-04-26 02:47 28.43313 -81.31509 102 ft 5 kts 342°
2026-04-26 02:47 28.43335 -81.31519 102 ft 3 kts 338°
2026-04-26 02:47 28.43345 -81.31524 102 ft 2 kts 337°
2026-04-26 02:47 28.43350 -81.31526 102 ft 0 kts 337°